Weather History for KFIG - September, 2013

Change the Weather History Date:

Friday, September 27, 2013

  Actual Average (KDUJ) Record (KDUJ)
Temperature  
Mean Temperature 58 °F 55 °F  
Max Temperature 72 °F 65 °F 77 °F (1973)
Min Temperature 44 °F 46 °F 34 °F (1989)
Degree Days  
Heating Degree Days 8 10  
Month to date heating degree days 151  
Since 1 July heating degree days 213  
Cooling Degree Days 0 0  
Month to date cooling degree days 28  
Year to date cooling degree days 359  
Growing Degree Days 8 (Base 50)    
Moisture  
Dew Point 48 °F    
Average Humidity 82    
Maximum Humidity 100    
Minimum Humidity 41    
Precipitation  
Precipitation 0.00 in 0.11 in 1.59 in (2002)
Month to date precipitation 3.31  
Sea Level Pressure  
Sea Level Pressure 30.21 in    
Wind  
Wind Speed 5 mph (NNE)    
Max Wind Speed 7 mph    
Max Gust Speed -    
Visibility 8 miles    
Events Fog    
T = Trace of Precipitation, MM = Missing Value Source: NWS Daily Summary

Daily Weather History Graph

Daily Weather History Graph

Search for Another Location

Airport or City:

Trip Planner

Search our weather history database for the weather conditions in past years. The results will help you decide how hot, cold, wet, or windy it might be!

Date:

Astronomy

Sep. 27, 2013 Rise Set
Actual Time 7:06 AM EDT 7:01 PM EDT
Civil Twilight 6:38 AM EDT 7:29 PM EDT
Nautical Twilight 6:06 AM EDT 8:01 PM EDT
Astronomical Twilight 5:34 AM EDT 8:33 PM EDT
Moon No Moon Rise 2:41 PM EDT (9/27)
Length of Visible Light 12h 50m
Length of Day
11h 55m
Last Quarter, 45% of the Moon is Illuminated
Sep 27
Last Quarter
Oct 4
New
Oct 11
First Quarter
Oct 18
Full
Oct 26
Last Quarter

Hourly Weather History & Observations

Time (EDT) Temp. Windchill Dew Point Humidity Pressure Visibility Wind Dir Wind Speed Gust Speed Precip Events Conditions
12:54 AM 51.1 °F - 48.9 °F 92% 30.14 in 10.0 mi North 4.6 mph - N/A   Overcast
1:54 AM 51.1 °F - 48.9 °F 92% 30.15 in 10.0 mi NNE 3.5 mph - N/A   Overcast
2:54 AM 50.0 °F - 48.9 °F 96% 30.15 in 10.0 mi North 5.8 mph - N/A   Overcast
3:54 AM 50.0 °F - 48.0 °F 93% 30.14 in 10.0 mi NNE 3.5 mph - N/A   Scattered Clouds
4:54 AM 48.0 °F - 46.9 °F 96% 30.16 in 10.0 mi North 4.6 mph - N/A   Overcast
5:54 AM 48.0 °F - 46.9 °F 96% 30.18 in 10.0 mi NNE 3.5 mph - N/A   Overcast
6:54 AM 46.0 °F 44.8 °F 45.0 °F 96% 30.19 in 10.0 mi NE 3.5 mph - N/A   Partly Cloudy
7:54 AM 46.0 °F 43.9 °F 46.0 °F 100% 30.22 in 8.0 mi NNE 4.6 mph - N/A   Partly Cloudy
7:59 AM 46.4 °F 44.3 °F 46.4 °F 100% 30.22 in 1.8 mi NNE 4.6 mph - N/A   Mostly Cloudy
8:08 AM 44.6 °F 42.2 °F 44.6 °F 100% 30.22 in 0.2 mi NNE 4.6 mph - N/A Fog Fog
8:54 AM 46.9 °F - 46.9 °F 100% 30.24 in 0.2 mi NE 3.5 mph - N/A Fog Fog
9:01 AM 48.2 °F - 48.2 °F 100% 30.24 in 1.0 mi NE 4.6 mph - N/A   Mist
9:06 AM 48.2 °F - 48.2 °F 100% 30.24 in 4.0 mi NE 3.5 mph - N/A   Overcast
9:23 AM 48.2 °F - 48.2 °F 100% 30.24 in 10.0 mi NE 3.5 mph - N/A   Mostly Cloudy
9:54 AM 55.0 °F - 50.0 °F 83% 30.24 in 10.0 mi NE 5.8 mph - N/A   Clear
10:54 AM 60.1 °F - 51.1 °F 72% 30.24 in 10.0 mi NE 5.8 mph - N/A   Clear
11:54 AM 63.0 °F - 52.0 °F 67% 30.24 in 10.0 mi North 5.8 mph - N/A   Clear
12:54 PM 68.0 °F - 52.0 °F 56% 30.22 in 10.0 mi Variable 5.8 mph - N/A   Partly Cloudy
1:54 PM 69.1 °F - 50.0 °F 51% 30.21 in 10.0 mi ENE 5.8 mph - N/A   Clear
2:54 PM 71.1 °F - 48.0 °F 44% 30.20 in 10.0 mi NE 5.8 mph - N/A   Partly Cloudy
3:54 PM 71.1 °F - 46.0 °F 41% 30.19 in 10.0 mi Calm Calm - N/A   Partly Cloudy
4:54 PM 69.1 °F - 46.9 °F 45% 30.19 in 10.0 mi East 5.8 mph - N/A   Clear
5:54 PM 68.0 °F - 46.9 °F 47% 30.20 in 10.0 mi East 5.8 mph - N/A   Clear
6:54 PM 64.9 °F - 46.9 °F 52% 30.21 in 10.0 mi ENE 5.8 mph - N/A   Clear
7:54 PM 57.0 °F - 51.1 °F 81% 30.23 in 10.0 mi North 6.9 mph - N/A   Clear
8:54 PM 54.0 °F - 50.0 °F 86% 30.23 in 10.0 mi North 6.9 mph - N/A   Clear
9:54 PM 51.1 °F - 48.9 °F 92% 30.25 in 10.0 mi North 6.9 mph - N/A   Clear
10:54 PM 48.9 °F - 48.0 °F 97% 30.26 in 10.0 mi North 4.6 mph - N/A   Clear
11:54 PM 48.0 °F - 46.9 °F 96% 30.26 in 10.0 mi North 3.5 mph - N/A   Clear